TimeMST,TemperatureF,Dew PointF,Humidity,Sea Level PressureIn,VisibilityMPH,Wind Direction,Wind SpeedMPH,Gust SpeedMPH,PrecipitationIn,Events,Conditions,WindDirDegrees,DateUTC
12:56 AM,15.1,8.1,74,29.85,-9999.0,Variable,6.9,-,N/A,,Unknown,0,2013-02-10 07:56:00
1:56 AM,15.1,8.1,74,29.84,-9999.0,Variable,3.5,-,N/A,,Unknown,0,2013-02-10 08:56:00
2:56 AM,14.0,7.0,74,29.88,-9999.0,Variable,4.6,-,N/A,,Unknown,0,2013-02-10 09:56:00
3:56 AM,12.9,7.0,77,29.89,-9999.0,Variable,3.5,-,N/A,,Unknown,0,2013-02-10 10:56:00
4:56 AM,12.0,6.1,77,29.93,-9999.0,Variable,4.6,-,N/A,,Unknown,0,2013-02-10 11:56:00
5:56 AM,10.9,6.1,81,29.96,-9999.0,Calm,Calm,-,N/A,,Unknown,0,2013-02-10 12:56:00
6:56 AM,12.0,6.1,77,29.98,-9999.0,North,4.6,-,N/A,,Unknown,350,2013-02-10 13:56:00
7:56 AM,12.0,5.0,73,30.01,-9999.0,Variable,4.6,-,N/A,,Unknown,0,2013-02-10 14:56:00
8:56 AM,12.9,3.0,65,30.03,-9999.0,North,9.2,-,N/A,,Unknown,350,2013-02-10 15:56:00
9:56 AM,12.9,1.9,62,30.05,-9999.0,Variable,4.6,-,N/A,,Unknown,0,2013-02-10 16:56:00
10:56 AM,15.1,-2.0,47,30.06,-9999.0,Variable,4.6,-,N/A,,Unknown,0,2013-02-10 17:56:00
11:56 AM,14.0,-2.0,49,30.07,-9999.0,North,8.1,19.6,N/A,,Unknown,350,2013-02-10 18:56:00
12:56 PM,16.0,-0.9,47,30.04,-9999.0,Variable,5.8,17.3,N/A,,Unknown,0,2013-02-10 19:56:00
1:56 PM,17.1,-2.0,43,30.04,-9999.0,NW,9.2,-,N/A,,Unknown,310,2013-02-10 20:56:00
2:56 PM,17.1,-2.0,43,30.04,-9999.0,Variable,6.9,16.1,N/A,,Unknown,0,2013-02-10 21:56:00
3:56 PM,16.0,-2.9,43,30.08,-9999.0,NW,9.2,18.4,N/A,,Unknown,310,2013-02-10 22:56:00
4:56 PM,12.0,-2.9,51,30.12,-9999.0,Variable,4.6,-,N/A,,Unknown,0,2013-02-10 23:56:00
5:56 PM,9.0,-4.0,56,30.16,-9999.0,Calm,Calm,-,N/A,,Unknown,0,2013-02-11 00:56:00
6:56 PM,1.0,-6.0,72,30.21,-9999.0,NW,3.5,-,N/A,,Unknown,310,2013-02-11 01:56:00
7:56 PM,-4.0,-9.0,79,30.26,-9999.0,NW,3.5,-,N/A,,Unknown,310,2013-02-11 02:56:00
8:56 PM,-6.0,-11.0,79,30.27,-9999.0,WNW,3.5,-,N/A,,Unknown,300,2013-02-11 03:56:00
9:56 PM,-9.9,-14.1,82,30.30,-9999.0,Calm,Calm,-,N/A,,Unknown,0,2013-02-11 04:56:00
10:56 PM,-9.9,-15.0,78,30.30,-9999.0,Calm,Calm,-,N/A,,Unknown,0,2013-02-11 05:56:00
11:56 PM,-13.0,-18.0,78,30.33,-9999.0,Calm,Calm,-,N/A,,Unknown,0,2013-02-11 06:56:00